| time (UTC) | temp F | wind direction | speed MPH | gust MPH | rain 1hr in | rain 24hr in | rain mn in | humidity % | barometer mb |
| 20260503003101 | 55 | 300 | 0.0 | 3.0 | 0.00 | 0.00 | 0.00 | 53 | 1019.7 |
| 20260503002553 | 56 | 309 | 1.0 | 3.0 | 0.00 | 0.00 | 0.00 | 52 | 1019.7 |
| 20260503002057 | 56 | 314 | 0.0 | 3.0 | 0.00 | 0.00 | 0.00 | 52 | 1019.6 |
| 20260503001601 | 57 | 5 | 0.0 | 4.0 | 0.00 | 0.00 | 0.00 | 50 | 1019.5 |
| 20260503001053 | 57 | 338 | 1.0 | 5.0 | 0.00 | 0.00 | 0.00 | 49 | 1019.6 |
| 20260503000653 | 57 | 11 | 1.0 | 5.0 | 0.00 | 0.00 | 0.00 | 47 | 1019.5 |
| 20260503000053 | 58 | 355 | 2.0 | 5.0 | 0.00 | 0.00 | 0.00 | 49 | 1019.5 |
| 20260502235553 | 58 | 307 | 1.0 | 8.0 | 0.00 | 0.00 | 0.00 | 49 | 1019.4 |
| 20260502235053 | 58 | 347 | 2.0 | 8.0 | 0.00 | 0.00 | 0.00 | 48 | 1019.5 |
| 20260502234555 | 58 | 298 | 2.0 | 8.0 | 0.00 | 0.00 | 0.00 | 45 | 1019.4 |
| 20260502234053 | 58 | 14 | 2.0 | 9.0 | 0.00 | 0.00 | 0.00 | 47 | 1019.3 |
| 20260502233552 | 58 | 313 | 2.0 | 9.0 | 0.00 | 0.00 | 0.00 | 45 | 1019.4 |
| 20260502233050 | 59 | 321 | 3.0 | 9.0 | 0.00 | 0.00 | 0.00 | 45 | 1019.4 |
| 20260502232548 | 59 | 319 | 2.0 | 9.0 | 0.00 | 0.00 | 0.00 | 46 | 1019.5 |
| 20260502232048 | 59 | 280 | 3.0 | 10.0 | 0.00 | 0.00 | 0.00 | 45 | 1019.5 |
| 20260502231551 | 59 | 291 | 4.0 | 10.0 | 0.00 | 0.00 | 0.00 | 47 | 1019.5 |
| 20260502231052 | 59 | 286 | 4.0 | 12.0 | 0.00 | 0.00 | 0.00 | 45 | 1019.6 |
| 20260502230650 | 59 | 294 | 4.0 | 12.0 | 0.00 | 0.00 | 0.00 | 45 | 1019.5 |
| 20260502230048 | 59 | 323 | 4.0 | 12.0 | 0.00 | 0.00 | 0.00 | 46 | 1019.5 |
| 20260502225547 | 59 | 304 | 3.0 | 11.0 | 0.00 | 0.00 | 0.00 | 47 | 1019.5 |
| 20260502225048 | 59 | 314 | 4.0 | 12.0 | 0.00 | 0.00 | 0.00 | 44 | 1019.5 |
| 20260502224547 | 59 | 355 | 5.0 | 12.0 | 0.00 | 0.00 | 0.00 | 43 | 1019.5 |
| 20260502224047 | 59 | 79 | 5.0 | 12.0 | 0.00 | 0.00 | 0.00 | 43 | 1019.5 |
| 20260502223547 | 59 | 28 | 4.0 | 12.0 | 0.00 | 0.00 | 0.00 | 45 | 1019.5 |
| 20260502223043 | 59 | 271 | 7.0 | 12.0 | 0.00 | 0.00 | 0.00 | 43 | 1019.5 |
| 20260502222543 | 59 | 324 | 3.0 | 8.0 | 0.00 | 0.00 | 0.00 | 44 | 1019.5 |
| 20260502222045 | 60 | 338 | 3.0 | 8.0 | 0.00 | 0.00 | 0.00 | 47 | 1019.5 |
| 20260502221544 | 59 | 281 | 4.0 | 10.0 | 0.00 | 0.00 | 0.00 | 43 | 1019.5 |
| 20260502221043 | 60 | 296 | 5.0 | 12.0 | 0.00 | 0.00 | 0.00 | 48 | 1019.5 |
| 20260502220644 | 60 | 360 | 5.0 | 12.0 | 0.00 | 0.00 | 0.00 | 47 | 1019.5 |
| 20260502220057 | 60 | 296 | 3.0 | 10.0 | 0.00 | 0.00 | 0.00 | 45 | 1019.6 |
| 20260502215541 | 59 | 321 | 4.0 | 8.0 | 0.00 | 0.00 | 0.00 | 45 | 1019.5 |
| 20260502215042 | 59 | 11 | 3.0 | 12.0 | 0.00 | 0.00 | 0.00 | 46 | 1019.5 |
| 20260502214542 | 58 | 306 | 2.0 | 12.0 | 0.00 | 0.00 | 0.00 | 48 | 1019.5 |
| 20260502214041 | 59 | 5 | 3.0 | 12.0 | 0.00 | 0.00 | 0.00 | 45 | 1019.6 |
| 20260502213541 | 60 | 338 | 3.0 | 12.0 | 0.00 | 0.00 | 0.00 | 44 | 1019.5 |
| 20260502213041 | 59 | 292 | 2.0 | 12.0 | 0.00 | 0.00 | 0.00 | 44 | 1019.5 |
| 20260502212538 | 59 | 300 | 4.0 | 12.0 | 0.00 | 0.00 | 0.00 | 46 | 1019.6 |
| 20260502212037 | 59 | 290 | 5.0 | 9.0 | 0.00 | 0.00 | 0.00 | 47 | 1019.5 |
| 20260502211541 | 58 | 315 | 3.0 | 11.0 | 0.00 | 0.00 | 0.00 | 45 | 1019.4 |
| 20260502211040 | 57 | 279 | 2.0 | 11.0 | 0.00 | 0.00 | 0.00 | 50 | 1019.5 |
| 20260502210501 | 58 | 333 | 3.0 | 15.0 | 0.00 | 0.00 | 0.00 | 49 | 1019.5 |
| 20260502210001 | 60 | 288 | 5.0 | 12.0 | 0.00 | 0.00 | 0.00 | 43 | 1019.4 |
| 20260502205501 | 59 | 311 | 3.0 | 13.0 | 0.00 | 0.00 | 0.00 | 46 | 1019.6 |
| 20260502205101 | 59 | 316 | 5.0 | 13.0 | 0.00 | 0.00 | 0.00 | 46 | 1019.5 |
| 20260502204610 | 60 | 327 | 4.0 | 12.0 | 0.00 | 0.00 | 0.00 | 44 | 1019.4 |
| 20260502204101 | 60 | 330 | 5.0 | 12.0 | 0.00 | 0.00 | 0.00 | 42 | 1019.5 |
| 20260502203559 | 60 | 281 | 3.0 | 11.0 | 0.00 | 0.00 | 0.00 | 50 | 1019.5 |
| 20260502203112 | 59 | 281 | 5.0 | 11.0 | 0.00 | 0.00 | 0.00 | 47 | 1019.6 |
| 20260502202557 | 59 | 309 | 4.0 | 10.0 | 0.00 | 0.00 | 0.00 | 45 | 1019.7 |
| 20260502202101 | 59 | 338 | 2.0 | 12.0 | 0.00 | 0.00 | 0.00 | 48 | 1019.8 |
| 20260502201545 | 60 | 310 | 4.0 | 12.0 | 0.00 | 0.00 | 0.00 | 44 | 1020.1 |
| 20260502201042 | 60 | 326 | 3.0 | 9.0 | 0.00 | 0.00 | 0.00 | 51 | 1020.1 |
| 20260502200642 | 58 | 321 | 2.0 | 10.0 | 0.00 | 0.00 | 0.00 | 48 | 1020.2 |
| 20260502200040 | 58 | 332 | 3.0 | 12.0 | 0.00 | 0.00 | 0.00 | 45 | 1020.3 |
| 20260502195539 | 58 | 355 | 4.0 | 14.0 | 0.00 | 0.00 | 0.00 | 47 | 1020.3 |
| 20260502195039 | 59 | 342 | 3.0 | 14.0 | 0.00 | 0.00 | 0.00 | 47 | 1020.3 |
| 20260502194544 | 60 | 345 | 5.0 | 13.0 | 0.00 | 0.00 | 0.00 | 44 | 1020.3 |
| 20260502194039 | 60 | 289 | 5.0 | 13.0 | 0.00 | 0.00 | 0.00 | 46 | 1020.3 |
| 20260502193539 | 61 | 298 | 6.0 | 13.0 | 0.00 | 0.00 | 0.00 | 47 | 1020.1 |
| 20260502193039 | 61 | 321 | 5.0 | 14.0 | 0.00 | 0.00 | 0.00 | 47 | 1020.3 |
| 20260502192538 | 61 | 317 | 8.0 | 14.0 | 0.00 | 0.00 | 0.00 | 42 | 1020.3 |
| 20260502192037 | 61 | 348 | 5.0 | 14.0 | 0.00 | 0.00 | 0.00 | 45 | 1020.3 |
| 20260502191542 | 60 | 330 | 1.0 | 10.0 | 0.00 | 0.00 | 0.00 | 49 | 1020.3 |
| 20260502191040 | 59 | 328 | 3.0 | 13.0 | 0.00 | 0.00 | 0.00 | 44 | 1020.3 |
| 20260502190637 | 60 | 333 | 3.0 | 13.0 | 0.00 | 0.00 | 0.00 | 42 | 1020.3 |
| 20260502190107 | 60 | 43 | 4.0 | 15.0 | 0.00 | 0.00 | 0.00 | 50 | 1020.4 |
| 20260502185557 | 60 | 273 | 6.0 | 15.0 | 0.00 | 0.00 | 0.00 | 45 | 1020.4 |
| 20260502185056 | 59 | 348 | 5.0 | 13.0 | 0.00 | 0.00 | 0.00 | 43 | 1020.4 |
| 20260502184556 | 60 | 340 | 4.0 | 15.0 | 0.00 | 0.00 | 0.00 | 45 | 1020.5 |
| 20260502184056 | 60 | 306 | 4.0 | 15.0 | 0.00 | 0.00 | 0.00 | 45 | 1020.4 |
| 20260502183555 | 60 | 344 | 6.0 | 13.0 | 0.00 | 0.00 | 0.00 | 42 | 1020.4 |
| 20260502183100 | 59 | 348 | 4.0 | 10.0 | 0.00 | 0.00 | 0.00 | 47 | 1020.5 |
| 20260502182558 | 58 | 300 | 2.0 | 14.0 | 0.00 | 0.00 | 0.00 | 52 | 1020.6 |
| 20260502182054 | 57 | 315 | 5.0 | 15.0 | 0.00 | 0.00 | 0.00 | 46 | 1020.6 |
| 20260502181557 | 59 | 305 | 7.0 | 15.0 | 0.00 | 0.00 | 0.00 | 47 | 1020.5 |
| 20260502181053 | 59 | 317 | 4.0 | 15.0 | 0.00 | 0.00 | 0.00 | 46 | 1020.5 |
| 20260502180654 | 60 | 318 | 7.0 | 15.0 | 0.00 | 0.00 | 0.00 | 47 | 1020.6 |
| 20260502180113 | 60 | 295 | 5.0 | 15.0 | 0.00 | 0.00 | 0.00 | 42 | 1020.6 |
| 20260502164053 | 58 | 300 | 6.0 | 15.0 | 0.00 | 0.00 | 0.00 | 48 | 1020.6 |
| 20260502163553 | 57 | 21 | 8.0 | 15.0 | 0.00 | 0.00 | 0.00 | 50 | 1020.7 |
| 20260502163107 | 57 | 348 | 6.0 | 14.0 | 0.00 | 0.00 | 0.00 | 51 | 1020.7 |
| 20260502162550 | 59 | 5 | 8.0 | 15.0 | 0.00 | 0.00 | 0.00 | 53 | 1020.6 |
| 20260502162049 | 58 | 28 | 7.0 | 15.0 | 0.00 | 0.00 | 0.00 | 47 | 1020.5 |
| 20260502161548 | 59 | 331 | 5.0 | 14.0 | 0.00 | 0.00 | 0.00 | 52 | 1020.5 |
| 20260502161048 | 57 | 16 | 6.0 | 14.0 | 0.00 | 0.00 | 0.00 | 53 | 1020.4 |
| 20260502160647 | 55 | 296 | 6.0 | 18.0 | 0.00 | 0.00 | 0.00 | 51 | 1020.6 |
| 20260502152046 | 55 | 344 | 6.0 | 17.0 | 0.00 | 0.00 | 0.00 | 61 | 1020.4 |
| 20260502151545 | 56 | 355 | 4.0 | 13.0 | 0.00 | 0.00 | 0.00 | 62 | 1020.3 |
| 20260502151046 | 56 | 340 | 3.0 | 9.0 | 0.00 | 0.00 | 0.00 | 68 | 1020.3 |
| 20260502150642 | 55 | 351 | 4.0 | 9.0 | 0.00 | 0.00 | 0.00 | 66 | 1020.3 |
| 20260502130506 | 44 | 23 | 1.0 | 7.0 | 0.00 | 0.00 | 0.00 | 91 | 1019.8 |
| 20260502123603 | 42 | 310 | 0.0 | 3.0 | 0.00 | 0.00 | 0.00 | 95 | 1019.6 |
| 20260502123105 | 41 | 325 | 0.0 | 0.0 | 0.00 | 0.00 | 0.00 | 95 | 1019.6 |
| 20260502122556 | 41 | 315 | 0.0 | 0.0 | 0.00 | 0.00 | 0.00 | 95 | 1019.4 |
| 20260502122055 | 40 | 306 | 0.0 | 0.0 | 0.00 | 0.00 | 0.00 | 96 | 1019.3 |
| 20260502121559 | 40 | 310 | 0.0 | 0.0 | 0.00 | 0.00 | 0.00 | 95 | 1019.3 |
| 20260502121054 | 40 | 310 | 0.0 | 0.0 | 0.00 | 0.00 | 0.00 | 96 | 1019.3 |
| 20260502120654 | 40 | 313 | 0.0 | 0.0 | 0.00 | 0.00 | 0.00 | 96 | 1019.1 |
| 20260502115601 | 39 | 313 | 0.0 | 0.0 | 0.00 | 0.00 | 0.00 | 95 | 1018.9 |
| 20260502115057 | 39 | 313 | 0.0 | 0.0 | 0.00 | 0.00 | 0.00 | 96 | 1019.0 |
| 20260502114556 | 39 | 313 | 0.0 | 0.0 | 0.00 | 0.00 | 0.00 | 96 | 1018.8 |
| 20260502114055 | 39 | 313 | 0.0 | 0.0 | 0.00 | 0.00 | 0.00 | 95 | 1018.8 |
| 20260502113556 | 39 | 313 | 0.0 | 0.0 | 0.00 | 0.00 | 0.00 | 95 | 1018.7 |
| 20260502113055 | 38 | 313 | 0.0 | 0.0 | 0.00 | 0.00 | 0.00 | 95 | 1018.6 |
| 20260502112551 | 38 | 313 | 0.0 | 0.0 | 0.00 | 0.00 | 0.00 | 95 | 1018.5 |
| 20260502112050 | 38 | 313 | 0.0 | 0.0 | 0.00 | 0.00 | 0.00 | 95 | 1018.5 |
| 20260502111551 | 38 | 313 | 0.0 | 0.0 | 0.00 | 0.00 | 0.00 | 95 | 1018.3 |
| 20260502111052 | 38 | 313 | 0.0 | 0.0 | 0.00 | 0.00 | 0.00 | 95 | 1018.3 |
| 20260502110650 | 38 | 313 | 0.0 | 0.0 | 0.00 | 0.00 | 0.00 | 95 | 1018.3 |
| 20260502110046 | 38 | 313 | 0.0 | 0.0 | 0.00 | 0.00 | 0.00 | 95 | 1018.3 |
| 20260502105545 | 38 | 313 | 0.0 | 0.0 | 0.00 | 0.00 | 0.00 | 95 | 1018.2 |
| 20260502105045 | 39 | 313 | 0.0 | 0.0 | 0.00 | 0.00 | 0.00 | 95 | 1018.1 |
| 20260502104545 | 39 | 313 | 0.0 | 0.0 | 0.00 | 0.00 | 0.00 | 95 | 1018.0 |
| 20260502104045 | 39 | 313 | 0.0 | 0.0 | 0.00 | 0.00 | 0.00 | 95 | 1017.9 |
| 20260502103545 | 39 | 313 | 0.0 | 0.0 | 0.00 | 0.00 | 0.00 | 95 | 1018.0 |
| 20260502103045 | 39 | 313 | 0.0 | 0.0 | 0.00 | 0.00 | 0.00 | 95 | 1017.9 |
| 20260502102544 | 39 | 313 | 0.0 | 0.0 | 0.00 | 0.00 | 0.00 | 95 | 1017.9 |
| 20260502102044 | 39 | 313 | 0.0 | 0.0 | 0.00 | 0.00 | 0.00 | 95 | 1017.9 |
| 20260502101544 | 38 | 313 | 0.0 | 0.0 | 0.00 | 0.00 | 0.00 | 95 | 1017.9 |
| 20260502101043 | 38 | 313 | 0.0 | 0.0 | 0.00 | 0.00 | 0.00 | 95 | 1017.8 |
| 20260502100644 | 38 | 313 | 0.0 | 0.0 | 0.00 | 0.00 | 0.00 | 95 | 1017.7 |
| 20260502091037 | 38 | 313 | 0.0 | 0.0 | 0.00 | 0.00 | 0.00 | 95 | 1017.6 |
| 20260502090637 | 38 | 313 | 0.0 | 0.0 | 0.00 | 0.00 | 0.00 | 95 | 1017.6 |
| 20260502071050 | 40 | 313 | 0.0 | 0.0 | 0.00 | 0.00 | 0.00 | 95 | 1018.1 |
| 20260502070649 | 40 | 313 | 0.0 | 0.0 | 0.00 | 0.00 | 0.00 | 94 | 1018.2 |
| 20260502070056 | 40 | 313 | 0.0 | 0.0 | 0.00 | 0.00 | 0.00 | 94 | 1018.1 |
| 20260502065551 | 40 | 313 | 0.0 | 0.0 | 0.00 | 0.00 | 0.00 | 94 | 1018.0 |
| 20260502065050 | 40 | 313 | 0.0 | 0.0 | 0.00 | 0.00 | 0.00 | 94 | 1017.9 |
| 20260502064550 | 40 | 313 | 0.0 | 0.0 | 0.00 | 0.00 | 0.00 | 94 | 1018.0 |
| 20260502064050 | 40 | 313 | 0.0 | 0.0 | 0.00 | 0.00 | 0.00 | 94 | 1018.0 |
| 20260502063552 | 40 | 313 | 0.0 | 0.0 | 0.00 | 0.00 | 0.00 | 94 | 1018.1 |
| 20260502063049 | 40 | 313 | 0.0 | 0.0 | 0.00 | 0.00 | 0.00 | 94 | 1018.1 |
| 20260502062548 | 40 | 313 | 0.0 | 0.0 | 0.00 | 0.00 | 0.00 | 94 | 1018.1 |
| 20260502062051 | 40 | 313 | 0.0 | 0.0 | 0.00 | 0.00 | 0.00 | 94 | 1018.1 |
| 20260502061548 | 40 | 313 | 0.0 | 0.0 | 0.00 | 0.00 | 0.00 | 94 | 1018.1 |
| 20260502061047 | 40 | 313 | 0.0 | 0.0 | 0.00 | 0.00 | 0.00 | 94 | 1018.1 |
| 20260502060648 | 40 | 313 | 0.0 | 0.0 | 0.00 | 0.00 | 0.00 | 94 | 1018.1 |
| 20260502060048 | 40 | 313 | 0.0 | 0.0 | 0.00 | 0.00 | 0.00 | 94 | 1018.1 |
| 20260502055548 | 40 | 313 | 0.0 | 0.0 | 0.00 | 0.00 | 0.00 | 94 | 1018.1 |
| 20260502055045 | 40 | 313 | 0.0 | 0.0 | 0.00 | 0.00 | 0.00 | 94 | 1018.0 |
| 20260502054553 | 40 | 313 | 0.0 | 0.0 | 0.00 | 0.00 | 0.00 | 94 | 1017.9 |
| 20260502054045 | 40 | 313 | 0.0 | 0.0 | 0.00 | 0.00 | 0.00 | 94 | 1017.9 |
| 20260502053544 | 40 | 313 | 0.0 | 0.0 | 0.00 | 0.00 | 0.00 | 93 | 1017.9 |
| 20260502053044 | 40 | 313 | 0.0 | 0.0 | 0.00 | 0.00 | 0.00 | 93 | 1017.9 |
| 20260502052545 | 40 | 313 | 0.0 | 0.0 | 0.00 | 0.00 | 0.00 | 93 | 1017.9 |
| 20260502052045 | 41 | 313 | 0.0 | 0.0 | 0.00 | 0.00 | 0.00 | 93 | 1017.9 |
| 20260502051543 | 41 | 313 | 0.0 | 0.0 | 0.00 | 0.00 | 0.00 | 93 | 1018.0 |
| 20260502051041 | 41 | 313 | 0.0 | 0.0 | 0.00 | 0.00 | 0.00 | 93 | 1018.0 |
| 20260502050641 | 41 | 313 | 0.0 | 0.0 | 0.00 | 0.00 | 0.00 | 93 | 1018.0 |
| 20260502050047 | 41 | 313 | 0.0 | 0.0 | 0.00 | 0.00 | 0.00 | 93 | 1018.0 |
| 20260502045542 | 41 | 313 | 0.0 | 0.0 | 0.00 | 0.00 | 0.00 | 93 | 1018.1 |
| 20260502045041 | 41 | 313 | 0.0 | 0.0 | 0.00 | 0.00 | 0.00 | 93 | 1018.1 |
| 20260502044547 | 41 | 313 | 0.0 | 0.0 | 0.00 | 0.00 | 0.00 | 92 | 1018.0 |
| 20260502044039 | 41 | 313 | 0.0 | 0.0 | 0.00 | 0.00 | 0.00 | 92 | 1018.2 |
| 20260502043539 | 41 | 313 | 0.0 | 0.0 | 0.00 | 0.00 | 0.00 | 92 | 1018.2 |
| 20260502043047 | 42 | 313 | 0.0 | 0.0 | 0.00 | 0.00 | 0.00 | 91 | 1018.1 |
| 20260502042540 | 42 | 313 | 0.0 | 0.0 | 0.00 | 0.00 | 0.00 | 91 | 1018.2 |
| 20260502042039 | 42 | 313 | 0.0 | 0.0 | 0.00 | 0.00 | 0.00 | 91 | 1018.2 |
| 20260502041546 | 42 | 313 | 0.0 | 0.0 | 0.00 | 0.00 | 0.00 | 91 | 1018.3 |
| 20260502041038 | 42 | 313 | 0.0 | 0.0 | 0.00 | 0.00 | 0.00 | 90 | 1018.3 |
| 20260502040638 | 42 | 313 | 0.0 | 0.0 | 0.00 | 0.00 | 0.00 | 90 | 1018.3 |
| 20260502040035 | 43 | 313 | 0.0 | 0.0 | 0.00 | 0.00 | 0.00 | 90 | 1018.4 |
| 20260502035534 | 43 | 313 | 0.0 | 0.0 | 0.00 | 0.00 | 0.00 | 89 | 1018.4 |
| 20260502035034 | 43 | 313 | 0.0 | 0.0 | 0.00 | 0.00 | 0.00 | 89 | 1018.5 |
| 20260502034538 | 44 | 313 | 0.0 | 0.0 | 0.00 | 0.00 | 0.00 | 89 | 1018.6 |
| 20260502034035 | 44 | 313 | 0.0 | 0.0 | 0.00 | 0.00 | 0.00 | 89 | 1018.6 |
| 20260502033535 | 44 | 313 | 0.0 | 0.0 | 0.00 | 0.00 | 0.00 | 89 | 1018.6 |
| 20260502033034 | 44 | 313 | 0.0 | 0.0 | 0.00 | 0.00 | 0.00 | 89 | 1018.6 |
| 20260502032533 | 43 | 313 | 0.0 | 0.0 | 0.00 | 0.00 | 0.00 | 90 | 1018.7 |
| 20260502032033 | 43 | 313 | 0.0 | 0.0 | 0.00 | 0.00 | 0.00 | 91 | 1018.7 |
| 20260502031533 | 43 | 313 | 0.0 | 0.0 | 0.00 | 0.00 | 0.00 | 90 | 1018.7 |
| 20260502031033 | 43 | 313 | 0.0 | 0.0 | 0.00 | 0.00 | 0.00 | 90 | 1018.7 |
| 20260502030633 | 43 | 313 | 0.0 | 0.0 | 0.00 | 0.00 | 0.00 | 90 | 1018.7 |
| 20260502030052 | 43 | 313 | 0.0 | 0.0 | 0.00 | 0.00 | 0.00 | 90 | 1018.8 |
| 20260502025551 | 43 | 313 | 0.0 | 0.0 | 0.00 | 0.00 | 0.00 | 89 | 1018.8 |
| 20260502025051 | 43 | 313 | 0.0 | 0.0 | 0.00 | 0.00 | 0.00 | 89 | 1018.9 |
| 20260502024553 | 43 | 313 | 0.0 | 0.0 | 0.00 | 0.00 | 0.00 | 89 | 1018.9 |
| 20260502024051 | 43 | 313 | 0.0 | 0.0 | 0.00 | 0.00 | 0.00 | 88 | 1018.8 |
| 20260502023551 | 43 | 313 | 0.0 | 0.0 | 0.00 | 0.00 | 0.00 | 87 | 1018.8 |
| 20260502023051 | 44 | 313 | 0.0 | 0.0 | 0.00 | 0.00 | 0.00 | 86 | 1018.7 |
| 20260502022551 | 44 | 313 | 0.0 | 0.0 | 0.00 | 0.00 | 0.00 | 86 | 1018.7 |
| 20260502022050 | 44 | 313 | 0.0 | 0.0 | 0.00 | 0.00 | 0.00 | 85 | 1018.6 |
| 20260502021551 | 44 | 313 | 0.0 | 0.0 | 0.00 | 0.00 | 0.00 | 85 | 1018.4 |
| 20260502021050 | 44 | 313 | 0.0 | 0.0 | 0.00 | 0.00 | 0.00 | 85 | 1018.4 |
| 20260502020650 | 45 | 313 | 0.0 | 0.0 | 0.00 | 0.00 | 0.00 | 85 | 1018.4 |
| 20260502020047 | 45 | 313 | 0.0 | 0.0 | 0.00 | 0.00 | 0.00 | 84 | 1018.3 |
| 20260502015547 | 45 | 313 | 0.0 | 0.0 | 0.00 | 0.00 | 0.00 | 83 | 1018.3 |
| 20260502015046 | 46 | 313 | 0.0 | 0.0 | 0.00 | 0.00 | 0.00 | 83 | 1018.2 |
| 20260502014555 | 46 | 313 | 0.0 | 0.0 | 0.00 | 0.00 | 0.00 | 82 | 1018.2 |
| 20260502014046 | 47 | 313 | 0.0 | 0.0 | 0.00 | 0.00 | 0.00 | 80 | 1017.9 |
| 20260502013547 | 47 | 313 | 0.0 | 0.0 | 0.00 | 0.00 | 0.00 | 78 | 1017.9 |
| 20260502013052 | 47 | 313 | 0.0 | 0.0 | 0.00 | 0.00 | 0.00 | 79 | 1017.7 |
| 20260502012546 | 48 | 313 | 0.0 | 0.0 | 0.00 | 0.00 | 0.00 | 78 | 1017.7 |
| 20260502012046 | 48 | 313 | 0.0 | 0.0 | 0.00 | 0.00 | 0.00 | 74 | 1017.6 |
| 20260502011549 | 49 | 313 | 0.0 | 0.0 | 0.00 | 0.00 | 0.00 | 74 | 1017.4 |
| 20260502011046 | 49 | 313 | 0.0 | 0.0 | 0.00 | 0.00 | 0.00 | 73 | 1017.3 |
| 20260502010647 | 50 | 313 | 0.0 | 0.0 | 0.00 | 0.00 | 0.00 | 73 | 1017.2 |
| 20260502010044 | 51 | 313 | 0.0 | 0.0 | 0.00 | 0.00 | 0.00 | 70 | 1017.3 |
| 20260502005544 | 51 | 313 | 0.0 | 0.0 | 0.00 | 0.00 | 0.00 | 69 | 1017.1 |
| 20260502005044 | 52 | 313 | 0.0 | 0.0 | 0.00 | 0.00 | 0.00 | 64 | 1017.2 |
| 20260502004546 | 53 | 313 | 0.0 | 0.0 | 0.00 | 0.00 | 0.00 | 62 | 1017.1 |
| 20260502004046 | 54 | 313 | 0.0 | 0.0 | 0.00 | 0.00 | 0.00 | 62 | 1017.1 |
| 20260502003543 | 54 | 313 | 0.0 | 0.0 | 0.00 | 0.00 | 0.00 | 59 | 1017.2 |